This demonstration page uses our WeatherBlox Daily Observations layout. Learn more.

Left ArrowRight Arrow

39.95238, -75.16362

Hourly Observations for April 1, 2015

Temp ( °F °C ) Dew Point ( °F °C ) Humidity (%) Winds ( mph kmh ) Pressure ( in mb ) Visibility ( mi km ) Precip ( " mm )
12:54 am 00:54 Clear 38 3.3 32 0 79 79 NW 14 22 29.89 1012 10 16 0.00 0.00
1:54 am 01:54 Clear 37 2.8 30 -1.1 76 76 NNW 14 22 29.90 1013 10 16 0.00 0.00
2:54 am 02:54 Clear 37 2.8 28 -2.2 70 70 NW 14 22 29.91 1013 10 16 0.00 0.00
3:54 am 03:54 Clear 36 2.2 27 -2.8 70 70 NNW 14 22 29.92 1013 10 16 0.00 0.00
4:54 am 04:54 Clear 36 2.2 25 -3.9 64 64 N 8 13 29.94 1014 10 16 0.00 0.00
5:54 am 05:54 Mostly Clear 35 1.7 24 -4.4 64 64 NNW 8 13 29.98 1015 10 16 0.00 0.00
6:54 am 06:54 Mostly Sunny 35 1.7 24 -4.4 64 64 NW 9 15 30.03 1017 10 16 0.00 0.00
7:54 am 07:54 Mostly Sunny 36 2.2 24 -4.4 62 62 NNW 3 6 30.07 1018 10 16 0.00 0.00
8:54 am 08:54 Mostly Sunny 40 4.4 25 -3.9 55 55 N 10 17 30.09 1019 10 16 0.00 0.00
9:54 am 09:54 Mostly Sunny 43 6.1 24 -4.4 47 47 NNW 10 17 30.11 1020 10 16 0.00 0.00
10:54 am 10:54 Mostly Sunny 45 7.2 23 -5 42 42 NW 10 17 30.13 1020 10 16 0.00 0.00
11:54 am 11:54 Mostly Sunny 47 8.3 23 -5 39 39 WNW 10 17 30.12 1020 10 16 0.00 0.00
12:54 pm 12:54 Mostly Sunny 49 9.4 22 -5.6 35 35 WNW 13 20 30.12 1020 10 16 0.00 0.00
1:54 pm 13:54 Mostly Sunny 52 11.1 23 -5 32 32 NW 14 22 30.11 1020 10 16 0.00 0.00
2:54 pm 14:54 Mostly Sunny 53 11.7 22 -5.6 30 30 WNW 10 17 30.11 1020 10 16 0.00 0.00
3:54 pm 15:54 Mostly Sunny 56 13.3 22 -5.6 27 27 NNW 10 17 30.11 1020 10 16 0.00 0.00
4:54 pm 16:54 Mostly Sunny 56 13.3 19 -7.2 24 24 NNW 15 24 30.11 1020 10 16 0.00 0.00
5:54 pm 17:54 Mostly Sunny 56 13.3 16 -8.9 21 21 WNW 12 19 30.13 1020 10 16 0.00 0.00
6:54 pm 18:54 Sunny 55 12.8 16 -8.9 21 21 NW 12 19 30.16 1021 10 16 0.00 0.00
7:54 pm 19:54 Clear 51 10.6 19 -7.2 28 28 NNW 10 17 30.18 1022 10 16 0.00 0.00
7:59 pm 19:59 Cloudy with Light Rain 41 5 36 2.2 82 82 N 14 22 29.77 1008 10 16 0.00 0.03
8:54 pm 20:54 Clear 49 9.4 20 -6.7 32 32 NNW 7 11 30.22 1023 10 16 0.00 0.00
9:54 pm 21:54 Clear 49 9.4 20 -6.7 32 32 N 3 6 30.22 1023 10 16 0.00 0.00
10:54 pm 22:54 Clear 45 7.2 22 -5.6 40 40 Calm 30.23 1024 10 16 0.00 0.00
11:54 pm 23:54 Clear 42 5.6 27 -2.8 55 55 Calm 30.23 1024 10 16 0.00 0.00

Powered by AerisWeather